DW1009 Weather Reports


Display with metric or nautical units.
time (UTC)temp
F
wind
direction
speed
MPH
gust
MPH
rain 1hr
in
rain 24hr
in
rain mn
in
humidity
%
barometer
mb
20260901220138 76 297 8.0 10.0 0.00 0.00 0.00 71 1012.8
20260901215139 76 254 4.0 9.0 0.00 0.00 0.00 70 1012.9
20260901214138 76 279 6.0 10.0 0.00 0.00 0.00 73 1012.9
20260901213138 76 269 6.0 11.0 0.00 0.00 0.00 70 1012.9
20260901212138 75 315 3.0 10.0 0.00 0.00 0.00 72 1012.9
20260901211139 76 279 8.0 9.0 0.00 0.00 0.00 73 1012.9
20260901210138 76 220 5.0 11.0 0.00 0.00 0.00 71 1012.9
20260901205138 76 244 4.0 9.0 0.00 0.00 0.00 73 1013.0
20260901204138 76 277 8.0 9.0 0.00 0.00 0.00 71 1013.1
20260901203138 76 327 6.0 9.0 0.00 0.00 0.00 71 1013.1
20260901202138 76 293 1.0 9.0 0.00 0.00 0.00 72 1013.2
20260901200138 76 317 6.0 10.0 0.00 0.00 0.00 71 1013.3
20260901195139 76 217 5.0 11.0 0.00 0.00 0.00 70 1013.5
20260901194138 76 313 9.0 9.0 0.00 0.00 0.00 70 1013.5
20260901193138 76 194 5.0 9.0 0.00 0.00 0.00 71 1013.5
20260901192138 75 187 4.0 8.0 0.00 0.00 0.00 72 1013.7
20260901190139 74 198 3.0 8.0 0.00 0.00 0.00 74 1013.8
20260901185138 74 227 6.0 7.0 0.00 0.00 0.00 73 1014.0
20260901184138 74 220 6.0 9.0 0.00 0.00 0.00 73 1013.9
20260901183138 74 232 5.0 8.0 0.00 0.00 0.00 74 1013.9
20260901181138 74 244 5.0 9.0 0.00 0.00 0.00 73 1013.8
20260901180138 73 231 6.0 7.0 0.00 0.00 0.00 74 1013.7
20260901175138 74 261 4.0 11.0 0.00 0.00 0.00 74 1013.7
20260901173138 72 237 4.0 8.0 0.00 0.00 0.00 78 1013.9
20260901172137 72 265 4.0 8.0 0.00 0.00 0.00 78 1013.8
20260901171137 72 261 4.0 9.0 0.00 0.00 0.00 78 1013.7
20260901165138 72 230 3.0 5.0 0.00 0.00 0.00 79 1013.3
20260901164137 71 243 2.0 5.0 0.00 0.00 0.00 80 1013.3
20260901163139 71 184 0.0 6.0 0.00 0.00 0.00 81 1013.4
20260901162137 70 213 4.0 6.0 0.00 0.00 0.00 81 1013.2
20260901161137 70 209 3.0 6.0 0.00 0.00 0.00 83 1013.2
20260901160137 70 276 2.0 5.0 0.00 0.00 0.00 83 1013.2
20260901155137 70 196 1.0 5.0 0.00 0.00 0.00 83 1013.2
20260901154137 70 229 3.0 5.0 0.00 0.00 0.00 83 1013.1
20260901153138 70 247 3.0 5.0 0.00 0.00 0.00 83 1013.2
20260901152137 70 180 2.0 4.0 0.00 0.00 0.00 83 1013.1
20260901151137 70 165 4.0 6.0 0.00 0.00 0.00 83 1013.0
20260901150137 70 192 1.0 5.0 0.00 0.00 0.00 84 1012.9
20260901145138 69 198 2.0 5.0 0.00 0.00 0.00 86 1013.0
20260901144137 68 169 2.0 4.0 0.00 0.00 0.00 86 1012.9
20260901143137 67 157 2.0 4.0 0.00 0.00 0.00 87 1012.8
20260901142138 66 173 1.0 3.0 0.00 0.00 0.00 89 1012.7
20260901141138 65 136 1.0 3.0 0.00 0.00 0.00 90 1012.5
20260901140137 65 82 2.0 4.0 0.00 0.00 0.00 91 1012.4
20260901135137 65 115 1.0 2.0 0.00 0.00 0.00 93 1012.1
20260901134137 64 269 0.0 0.0 0.00 0.00 0.00 93 1012.1
20260901133138 64 269 0.0 0.0 0.00 0.00 0.00 92 1011.9
20260901132137 64 269 0.0 1.0 0.00 0.00 0.00 92 1011.9
20260901131137 64 269 0.0 0.0 0.00 0.00 0.00 91 1011.9
20260901130137 64 269 0.0 0.0 0.00 0.00 0.00 91 1011.9
20260901125137 64 269 0.0 0.0 0.00 0.00 0.00 91 1011.9
20260901124137 65 269 0.0 2.0 0.00 0.00 0.00 91 1012.0
20260901123137 65 269 2.0 2.0 0.00 0.00 0.00 92 1012.0
20260901122138 64 269 0.0 2.0 0.00 0.00 0.00 92 1012.1
20260901121137 64 269 0.0 0.0 0.00 0.00 0.00 91 1012.0
20260901120137 64 269 0.0 2.0 0.00 0.00 0.00 90 1011.9
20260901115137 65 269 0.0 0.0 0.00 0.00 0.00 90 1012.0
20260901114137 65 269 0.0 0.0 0.00 0.00 0.00 89 1012.0
20260901110137 67 269 0.0 2.0 0.00 0.00 0.00 88 1012.0
20260901104137 67 323 0.0 2.0 0.00 0.00 0.00 89 1012.2
20260901103137 67 273 0.0 1.0 0.00 0.00 0.00 88 1012.0
20260901102136 67 273 1.0 2.0 0.00 0.00 0.00 88 1012.0
20260901101137 67 273 1.0 2.0 0.00 0.00 0.00 88 1012.1
20260901100137 67 309 0.0 2.0 0.00 0.00 0.00 88 1012.1
20260901095137 67 299 0.0 3.0 0.00 0.00 0.00 88 1012.1
20260901094137 67 330 1.0 3.0 0.00 0.00 0.00 88 1012.2
20260901093136 67 317 0.0 2.0 0.00 0.00 0.00 87 1012.1
20260901092137 67 290 1.0 3.0 0.00 0.00 0.00 87 1012.2
20260901091136 67 345 0.0 3.0 0.00 0.00 0.00 88 1012.2
20260901085137 67 241 0.0 3.0 0.00 0.00 0.00 88 1012.4
20260901084136 67 298 0.0 3.0 0.00 0.00 0.00 88 1012.5
20260901083136 67 260 1.0 3.0 0.00 0.00 0.00 88 1012.5
20260901082136 67 205 0.0 4.0 0.00 0.00 0.00 88 1012.2
20260901081137 67 210 0.0 3.0 0.00 0.00 0.00 88 1012.2
20260901080137 67 226 0.0 2.0 0.00 0.00 0.00 88 1012.2
20260901075136 67 197 0.0 2.0 0.00 0.00 0.00 87 1012.2
20260901074136 67 213 1.0 3.0 0.00 0.00 0.00 88 1012.1
20260901073136 68 204 3.0 3.0 0.00 0.00 0.00 88 1012.1
20260901072136 68 250 1.0 4.0 0.00 0.00 0.00 88 1012.2
20260901070136 68 248 2.0 8.0 0.00 0.00 0.00 88 1012.2
20260901065136 68 251 1.0 5.0 0.00 0.00 0.00 88 1012.1
20260901064136 68 161 0.0 3.0 0.00 0.00 0.00 88 1011.9
20260901063136 68 213 1.0 3.0 0.00 0.00 0.00 88 1011.7
20260901062136 68 323 1.0 4.0 0.00 0.00 0.00 88 1011.6
20260901061136 68 238 0.0 5.0 0.00 0.00 0.00 87 1011.5
20260901060136 68 303 2.0 4.0 0.00 0.00 0.00 87 1011.4
20260901055136 69 277 3.0 6.0 0.00 0.00 0.00 87 1011.5
20260901054136 69 292 2.0 6.0 0.00 0.00 0.00 87 1011.6
20260901053136 69 325 2.0 4.0 0.00 0.00 0.00 88 1011.7
20260901052136 69 286 0.0 3.0 0.00 0.00 0.00 88 1011.5
20260901045136 69 263 0.0 5.0 0.00 0.00 0.00 88 1011.5
20260901044136 69 286 1.0 5.0 0.00 0.00 0.00 88 1011.5
20260901043135 69 221 1.0 4.0 0.00 0.00 0.00 88 1011.5
20260901042136 69 290 2.0 6.0 0.00 0.00 0.00 88 1011.4
20260901041136 69 275 1.0 4.0 0.00 0.00 0.00 89 1011.3
20260901040136 69 292 1.0 4.0 0.00 0.00 0.00 89 1011.0
20260901035136 69 321 0.0 6.0 0.00 0.00 0.00 88 1011.0
20260901034136 69 232 1.0 4.0 0.00 0.00 0.00 88 1010.7
20260901031136 70 238 3.0 4.0 0.00 0.00 0.00 86 1010.3
20260901025136 70 309 1.0 4.0 0.00 0.00 0.00 85 1010.4
20260901024136 70 355 2.0 8.0 0.00 0.00 0.00 85 1010.1
20260901022136 71 257 2.0 5.0 0.00 0.00 0.00 84 1010.3
20260901021136 71 250 2.0 8.0 0.00 0.00 0.00 83 1010.3
20260901020136 72 252 3.0 8.0 0.00 0.00 0.00 82 1010.2
20260901015137 73 243 1.0 7.0 0.00 0.00 0.00 82 1010.3
20260901014135 73 31 1.0 8.0 0.00 0.00 0.00 81 1010.2
20260901012135 74 275 4.0 8.0 0.00 0.00 0.00 80 1010.3
20260901010135 76 240 4.0 5.0 0.00 0.00 0.00 78 1010.4
20260901003136 76 24 1.0 8.0 0.00 0.00 0.00 78 1010.5
20260901002136 77 263 2.0 8.0 0.00 0.00 0.00 77 1010.4
20260901001135 77 293 3.0 9.0 0.00 0.00 0.00 77 1010.6
20260901000135 77 201 5.0 9.0 0.00 0.00 0.00 76 1010.6
20260831234136 77 265 7.0 9.0 0.00 0.00 0.00 77 1010.6
20260831233136 78 205 4.0 11.0 0.00 0.00 0.00 75 1010.7
20260831231135 79 286 4.0 10.0 0.00 0.00 0.00 74 1010.6
20260831230135 78 218 4.0 9.0 0.00 0.00 0.00 75 1010.5
20260831225136 78 233 3.0 8.0 0.00 0.00 0.00 75 1010.7
20260831223135 78 298 1.0 8.0 0.00 0.00 0.00 76 1010.9
20260831222135 78 255 8.0 11.0 0.00 0.00 0.00 75 1010.9
20260831221135 78 288 5.0 9.0 0.00 0.00 0.00 73 1011.1